KINDAKUN ROCKS(AUT) current weather conditions

sailwx.info

Wind from 350 at 2 knots

Air temperature 3.9° C
Dewpoint -1.0° C

Last reported at 2017-Feb-22 20:00 UTC.
Time now 2017-Feb-22 22:09 UTC

Location: N 53°19' W 132°46'.
View on Google Maps.

See reports from other nearby stations

  
Tides and Currents Weather Stations Pressure Air Temp Water Temp Dewpoint Dewpoint Depression Visibility Wind Speed Wind Dir Waves Ship Positions
date/time (UTC)wind fromknots sea level pressurealtimeterstation pressurevisibilityair tempwater tempwave heightnotes
2017-Feb-22 21:00 340 6 4.1
2017-Feb-22 20:00 350 2 3.9
2017-Feb-22 19:00 070 0 4.0
2017-Feb-22 18:00 3.0
2017-Feb-22 17:00 050 2 3.0
2017-Feb-22 16:00 070 1 1.7
2017-Feb-22 15:00 360 6 2.6
2017-Feb-22 14:00 020 2 2.1
2017-Feb-22 13:00 050 1 2.0
2017-Feb-22 12:00 020 5 2.2
2017-Feb-22 11:00 020 4 2.2
2017-Feb-22 10:00 340 7 2.8
2017-Feb-22 09:00 330 8 2.9
2017-Feb-22 08:00 070 2 1.9
2017-Feb-22 07:00 110 1 1.6
2017-Feb-22 06:00 350 2 2.2
2017-Feb-22 05:00 260 12 2.2
2017-Feb-22 04:00 010 7 2.6
2017-Feb-22 03:00 3.0
2017-Feb-22 02:00 330 20 gusting 54 1.7
2017-Feb-22 01:00 320 13 3.0
2017-Feb-22 00:00 300 21 3.4
2017-Feb-21 23:00 340 21 4.1
2017-Feb-21 22:00 340 20 4.0
2017-Feb-21 21:00 320 17 4.3
2017-Feb-21 20:00 290 6 4.0
2017-Feb-21 19:00 360 5 3.3
2017-Feb-21 18:00 330 0 3.8
2017-Feb-21 17:00 300 6 3.8
2017-Feb-21 16:00 090 1 2.9
2017-Feb-21 15:00 030 4 3.9
2017-Feb-21 14:00 040 4 3.7
2017-Feb-21 13:00 020 2 3.8
2017-Feb-21 12:00 020 4 3.7
2017-Feb-21 11:00 030 5 3.7
2017-Feb-21 10:00 030 6 3.5
2017-Feb-21 09:00 010 6 4.0
2017-Feb-21 08:00 010 11 4.0
2017-Feb-21 07:00 350 13 4.0
2017-Feb-21 06:00 350 14 4.3
2017-Feb-21 05:00 010 11 4.6
2017-Feb-21 04:00 340 15 5.0
2017-Feb-21 03:00 330 20 5.0
2017-Feb-21 02:00 340 20 5.3
2017-Feb-21 01:00 330 20 6.0
2017-Feb-21 00:00 330 17 6.0
2017-Feb-20 23:00 360 7 5.6
2017-Feb-20 22:00 330 7 5.1